Regional Weather Roundup
Issued by NWS

Home | Current Version | Previous Version | Text Only | Print | Product List | Glossary On
Versions: 1 2 3 4 5 6 7 8 9 10 11 12 13 14 15 16 17 18 19 20 21 22 23 24 25 26 27 28 29 30 31 32 33 34 35 36 37 38 39 40 41 42 43 44 45 46 47 48 49 50
000
ASUS45 KREV 041610
RWRNV
NEVADA REGIONAL WEATHER ROUNDUP
NATIONAL WEATHER SERVICE RENO NV
900 AM PDT TUE AUG 04 2015

NOTE: "FAIR" INDICATES FEW OR NO CLOUDS BELOW 12,000 FEET WITH NO
SIGNIFICANT WEATHER AND/OR OBSTRUCTIONS TO VISIBILITY.

NVZ001-003-004-041700-
WESTERN NEVADA

CITY           SKY/WX    TMP DP  RH WIND       PRES   REMARKS
RENO           MOSUNNY   69  39  33 CALM      30.10S
CARSON CITY    FAIR      66  39  37 S3        30.13S
MINDEN         FAIR      66  39  37 S3        30.13S
SLIDE MTN        N/A     59  32  36 SE6         N/A
PYRAMID LAKE     N/A     73 N/A N/A VRB7        N/A
FALLON         MOSUNNY   77  44  30 CALM      30.04F
LOVELOCK       SUNNY     76  46  34 N12       30.04F
HAWTHORNE      SUNNY     73  41  31 CALM      30.08S
$$

NVZ002-CAZ072-073-041700-
NORTHERN AND CENTRAL SIERRA

CITY           SKY/WX    TMP DP  RH WIND       PRES   REMARKS
S. LAKE TAHOE  SUNNY     67  39  35 CALM      30.19F
TRUCKEE        MOSUNNY   55  39  54 CALM      30.19F
SQUAW VLY 8000   N/A     59  37  44 E1          N/A
SUSANVILLE     SUNNY     66  43  42 CALM      30.09F
BLUE CANYON    SUNNY     70  43  37 S6        30.15R
MAMMOTH LAKES  FAIR      64  37  36 CALM      30.25S
BRIDGEPORT     FAIR      61  27  27 CALM      30.20F
$$

NVZ030-031-036-041700-
NORTHERN NEVADA

CITY           SKY/WX    TMP DP  RH WIND       PRES   REMARKS
ELKO           SUNNY     71  45  39 CALM      30.12F
WINNEMUCCA     NOT AVBL
WENDOVER       SUNNY     72  54  53 SW3       30.12S
$$

NVZ035-037-041700-
CENTRAL NEVADA

CITY           SKY/WX    TMP DP  RH WIND       PRES   REMARKS
ELY            SUNNY     71  43  36 CALM      30.21S
EUREKA           N/A     73  40  30 N6        30.16S
$$

NVZ013-014-041700-
SOUTH CENTRAL NEVADA

CITY           SKY/WX    TMP DP  RH WIND       PRES   REMARKS
TONOPAH        SUNNY     71  27  19 CALM      30.15S
$$

NVZ017-020-022-041700-
SOUTHERN NEVADA

CITY           SKY/WX    TMP DP  RH WIND       PRES   REMARKS
LAS VEGAS      NOT AVBL
N. LAS VEGAS   SUNNY     88  38  17 CALM      29.92R
NELLIS AFB     SUNNY     90  37  15 E2        29.89F
HENDERSON      NOT AVBL
MERCURY        SUNNY     86  30  13 W6        29.98R
$$



USA.gov is the U.S. government's official web portal to all federal, state and local government web resources and services.